Regional Weather Roundup
Issued by NWS

Home | Current Version | Previous Version | Text Only | Print | Product List | Glossary On
Versions: 1 2 3 4 5 6 7 8 9 10 11 12 13 14 15 16 17 18 19 20 21 22 23 24 25 26 27 28 29 30 31 32 33 34 35 36 37 38 39 40 41 42 43 44 45 46 47 48 49 50
000
ASPQ40 PGUM 150412
RWRPQ
WEATHER ROUNDUP FOR THE MARIANAS AND MICRONESIA
NATIONAL WEATHER SERVICE TIYAN GU
200 PM CHST MON SEP 15 2014

GUZ001>004-150500-
MARIANA ISLANDS-

CITY           SKY/WX    TMP DP  RH WIND       PRES   REMARKS
GUAM AIRPORT   MOSUNNY   82  77  83 E9        29.70F HX  91
ANDERSEN AFB   PTSUNNY   81  75  83 E12       29.70F
ROTA AIRPORT   PTSUNNY   79  75  89 E13G18    29.72F
TINIAN AP      PTSUNNY   81  77  89 E9        29.69F
SAIPAN AP      PTSUNNY   82  75  78 E12       29.71F

$$

PMZ161-150500-
REPUBLIC OF PALAU-

CITY           SKY/WX    TMP DP  RH WIND       PRES   REMARKS
KOROR AP       PTSUNNY   88  75  66 W9G18     29.79F HX  97
KOROR WSO      CLOUDY    88  75  66 S10       29.78F HX  97

$$

PMZ171>174-150500-
FEDERATED STATES OF MICRONESIA-

CITY           SKY/WX    TMP DP  RH WIND       PRES   REMARKS
YAP AIRPORT    CLOUDY    82  77  83 NW8       29.73F HX  91
CHUUK AP       CLOUDY    90  81  74 VRB3      29.71F HX 108
POHNPEI AP     NOT AVBL
POHNPEI WSO    PTSUNNY   88  77  70 W9        29.78F HX 100
KOSRAE AP      NOT AVBL

$$

PMZ181-150500-
REPUBLIC OF THE MARSHALL ISLANDS-

CITY           SKY/WX    TMP DP  RH WIND       PRES   REMARKS
KWAJALEIN AP   MOSUNNY   88  73  62 NE9       29.72S HX  96
MAJURO AP      PTSUNNY   88  77  70 NE6       29.72  HX 100
MAJURO WSO     MOSUNNY   90  79  70 VRB3      29.71S HX 105

$$



USA.gov is the U.S. government's official web portal to all federal, state and local government web resources and services.